Southern Illinois Airport Carbondale,Murphysboro US
ICAO: KMDH
IATA: MDH
Category: Medium
Scheduled Services: No

Elevation: 411 ft
TransAlt. 18000 ft.

Airport Communications:
ATIS:119.85
KANSAS CITY CNTR:125.3
CTAF:125.35
GND:121.8
CARBONDALE TWR:125.35
UNICOM:122.95

KMDH Zoom In..

Runways:

(A) RW 06 length 4163 ft width 100 ft
---- / hdg 62

(B) RW 18L length 6506 ft width 100 ft
ILS 110.90 / hdg 182

(C) RW 18R length 3498 ft width 60 ft
---- / hdg 182

(D) RW 24 length 4163 ft width 100 ft
---- / hdg 242

(E) RW 36L length 3498 ft width 60 ft
---- / hdg 2

(F) RW 36R length 6506 ft width 100 ft
---- / hdg 2

Location; KMDH
Day. 23 / Time. 09.52 Zulu
* Altimeter: 29.91
* Temperature: 21° c. 69.8°f.
* Wind from: 330° Speed 04 kn.
Dewpoint: 19° c.
Visibility: 10 Statute Miles.
Clouds: Overcast 900 ft.

KMDH 230952Z AUTO 33004KT 10SM OVC009 21/19 A2991 RMK AO2 CIG 008V012 SLP123 T02060194 $


Wind From 330°
Speed 04 kn.

 
 
jpsmedia.com for Web Design worldairports.se 2018   terms of use